Location: Владивосток
(43.1151°N, 131.8856°E)
Time: 07:47:12
(UTC+10:00)

AO-73 - Visible Passes

Search period start: 29 June 2022 00:00
Search period end: 09 July 2022 00:00
Orbit: 579 x 658 km, 97.6° (Epoch: 28 June)

Date Brightness Start Highest point End Pass type
(mag) Time Alt. Az. Time Alt. Az. Time Alt. Az.
30 Jun ? 04:02:58 10° ENE 04:05:08 13° E 04:07:18 10° ESE visible
01 Jul ? 04:18:45 10° NE 04:22:03 20° E 04:25:21 10° SE visible
02 Jul ? 04:35:00 10° NE 04:38:55 29° E 04:42:52 10° SSE visible
03 Jul ? 04:51:28 10° NNE 04:55:46 43° E 05:00:05 10° S visible
06 Jul ? 04:06:56 10° NE 04:09:36 15° E 04:12:15 10° SE visible
07 Jul ? 04:22:56 10° NE 04:26:30 22° E 04:30:03 10° SE visible
08 Jul ? 04:39:15 10° NNE 04:43:21 33° E 04:47:26 10° SSE visible
